Time,TemperatureF,DewpointF,PressureIn,WindDirection,WindDirectionDegrees,WindSpeedMPH,WindSpeedGustMPH,Humidity,HourlyPrecipIn,Conditions,Clouds,dailyrainin,SoftwareType,DateUTC
2013-03-02 00:00:00,42.0,14.0,-100.00,North,-999,-999.0,-999.0,31,0.00,,,-99.99,,2013-03-02 08:00:00,
2013-03-02 00:52:00,42.0,14.0,-100.00,North,-999,-999.0,-999.0,31,0.00,,,-99.99,,2013-03-02 08:52:00,
2013-03-02 01:00:00,43.0,15.0,-100.00,North,-999,-999.0,-999.0,32,0.00,,,-99.99,,2013-03-02 09:00:00,
2013-03-02 01:52:00,43.0,15.0,-100.00,North,-999,-999.0,-999.0,32,0.00,,,-99.99,,2013-03-02 09:52:00,
2013-03-02 02:00:00,43.0,14.0,-100.00,North,-999,-999.0,-999.0,31,0.00,,,-99.99,,2013-03-02 10:00:00,
2013-03-02 02:52:00,43.0,14.0,-100.00,North,-999,-999.0,-999.0,31,0.00,,,-99.99,,2013-03-02 10:52:00,
2013-03-02 03:00:00,43.0,19.0,-100.00,North,-999,-999.0,-999.0,37,0.00,,,-99.99,,2013-03-02 11:00:00,
2013-03-02 03:52:00,43.0,19.0,-100.00,North,-999,-999.0,-999.0,37,0.00,,,-99.99,,2013-03-02 11:52:00,
2013-03-02 04:00:00,43.0,20.0,-100.00,North,-999,-999.0,-999.0,40,0.00,,,-99.99,,2013-03-02 12:00:00,
2013-03-02 05:00:00,44.0,14.0,-100.00,North,-999,-999.0,-999.0,29,0.00,,,-99.99,,2013-03-02 13:00:00,
2013-03-02 06:00:00,43.0,14.0,-100.00,North,-999,-999.0,-999.0,31,0.00,,,-99.99,,2013-03-02 14:00:00,
2013-03-02 07:00:00,43.0,7.0,-100.00,North,-999,-999.0,-999.0,22,0.00,,,-99.99,,2013-03-02 15:00:00,
2013-03-02 08:00:00,44.0,11.0,-100.00,North,-999,-999.0,-999.0,26,0.00,,,-99.99,,2013-03-02 16:00:00,
2013-03-02 09:00:00,44.0,9.0,-100.00,North,-999,-999.0,-999.0,23,0.00,,,-99.99,,2013-03-02 17:00:00,
2013-03-02 09:52:00,44.0,9.0,-100.00,North,-999,-999.0,-999.0,23,0.00,,,-99.99,,2013-03-02 17:52:00,
2013-03-02 10:00:00,45.0,11.0,-100.00,North,-999,-999.0,-999.0,25,0.00,,,-99.99,,2013-03-02 18:00:00,
2013-03-02 10:52:00,45.0,11.0,-100.00,North,-999,-999.0,-999.0,25,0.00,,,-99.99,,2013-03-02 18:52:00,
2013-03-02 11:00:00,44.0,14.0,-100.00,North,-999,-999.0,-999.0,29,0.00,,,-99.99,,2013-03-02 19:00:00,
2013-03-02 12:00:00,43.0,20.0,-100.00,North,-999,-999.0,-999.0,40,0.00,,,-99.99,,2013-03-02 20:00:00,
2013-03-02 13:00:00,42.0,26.0,-100.00,North,-999,-999.0,-999.0,52,0.00,,,-99.99,,2013-03-02 21:00:00,
2013-03-02 13:52:00,42.0,26.0,-100.00,North,-999,-999.0,-999.0,52,0.00,,,-99.99,,2013-03-02 21:52:00,
2013-03-02 14:00:00,41.0,29.0,-100.00,North,-999,-999.0,-999.0,61,0.00,,,-99.99,,2013-03-02 22:00:00,
2013-03-02 14:52:00,41.0,29.0,-100.00,North,-999,-999.0,-999.0,61,0.00,,,-99.99,,2013-03-02 22:52:00,
2013-03-02 15:00:00,38.0,33.0,-100.00,North,-999,-999.0,-999.0,82,0.00,,,-99.99,,2013-03-02 23:00:00,
2013-03-02 16:00:00,34.0,32.0,-100.00,North,-999,-999.0,-999.0,94,0.00,,,-99.99,,2013-03-03 00:00:00,
2013-03-02 17:00:00,34.0,32.0,-100.00,North,-999,-999.0,-999.0,93,0.01,,,-99.99,,2013-03-03 01:00:00,
2013-03-02 18:00:00,33.0,32.0,-100.00,North,-999,-999.0,-999.0,96,0.02,,,-99.99,,2013-03-03 02:00:00,
2013-03-02 19:00:00,32.0,32.0,-100.00,North,-999,-999.0,-999.0,98,0.01,,,-99.99,,2013-03-03 03:00:00,
2013-03-02 20:00:00,31.0,30.0,-100.00,North,-999,-999.0,-999.0,97,0.06,,,-99.99,,2013-03-03 04:00:00,
2013-03-02 21:00:00,30.0,28.0,-100.00,North,-999,-999.0,-999.0,94,0.03,,,-99.99,,2013-03-03 05:00:00,
2013-03-02 22:00:00,29.0,25.0,-100.00,North,-999,-999.0,-999.0,86,0.00,,,-99.99,,2013-03-03 06:00:00,
2013-03-02 22:52:00,29.0,25.0,-100.00,North,-999,-999.0,-999.0,86,0.00,,,-99.99,,2013-03-03 06:52:00,
2013-03-02 23:00:00,29.0,25.0,-100.00,North,-999,-999.0,-999.0,84,0.00,,,-99.99,,2013-03-03 07:00:00,